Farmville, Virginia, United States (23901)
Lat: 37.30N, Lon: 78.39W
Wx Zone: VAZ060
Local Info
Past Weather Observations for Today

NOTE: This archive is for the closest National Weather Service station to Farmville. Information may differ from the station used for current weather conditions.

Click here for Long-term Archive

Time Weather Temperature Dewpoint Humidity Pressure Winds Precip Visibility
21:15
Clear
52°F / 11°C 41°F / 5°C 67% 30.01 in
(1016 mb)
NW 3.5 mph
(NW 6 kph)
- 10SM
20:55
Clear
50°F / 10°C 43°F / 6°C 76% 30.01 in
(1016 mb)
Calm - 10SM
20:35
Clear
48°F / 9°C 43°F / 6°C 82% 30.01 in
(1016 mb)
Calm - 10SM
20:15
Clear
50°F / 10°C 43°F / 6°C 76% 30.01 in
(1016 mb)
Calm - 10SM
19:55
Clear
50°F / 10°C 43°F / 6°C 76% 29.98 in
(1015 mb)
Calm - 10SM
19:35
Clear
52°F / 11°C 43°F / 6°C 72% 29.98 in
(1015 mb)
Calm - 10SM
19:15
Clear
54°F / 12°C 43°F / 6°C 67% 29.98 in
(1015 mb)
Calm - 10SM
18:55
Clear
54°F / 12°C 43°F / 6°C 67% 29.98 in
(1015 mb)
Calm - 10SM
18:35
Clear
55°F / 13°C 43°F / 6°C 63% 29.98 in
(1015 mb)
NNW 4.6 mph
(NNW 7 kph)
- 10SM
18:15
Clear
55°F / 13°C 43°F / 6°C 63% 29.98 in
(1015 mb)
Calm - 10SM
17:55
Partly Cloudy
55°F / 13°C 43°F / 6°C 63% 29.98 in
(1015 mb)
NW 5.8 mph
(NW 9 kph)
- 10SM
17:35
Mostly Cloudy
55°F / 13°C 45°F / 7°C 67% 29.98 in
(1015 mb)
Calm - 10SM
17:15
Mostly Cloudy
57°F / 14°C 45°F / 7°C 63% 29.98 in
(1015 mb)
N 3.5 mph
(N 6 kph)
- 10SM
16:55
Mostly Cloudy
59°F / 15°C 43°F / 6°C 55% 29.98 in
(1015 mb)
NNW 5.8 mph
(NNW 9 kph)
- 10SM
16:35
Overcast
61°F / 16°C 45°F / 7°C 55% 29.98 in
(1015 mb)
N 4.6 mph
(N 7 kph)
- 10SM
16:15
Overcast
61°F / 16°C 45°F / 7°C 55% 29.98 in
(1015 mb)
N 5.8 mph
(N 9 kph)
- 10SM
15:55
Overcast
61°F / 16°C 45°F / 7°C 55% 29.98 in
(1015 mb)
N 4.6 mph
(N 7 kph)
- 10SM
15:35
Overcast
61°F / 16°C 45°F / 7°C 55% 29.95 in
(1014 mb)
N 4.6 mph
(N 7 kph)
- 10SM
15:15
Overcast
63°F / 17°C 45°F / 7°C 52% 29.95 in
(1014 mb)
N 10.4 mph
(N 17 kph)
- 10SM
14:55
Overcast
63°F / 17°C 45°F / 7°C 52% 29.95 in
(1014 mb)
N 11.5 mph
(N 19 kph)
- 10SM
14:35
Overcast
63°F / 17°C 43°F / 6°C 49% 29.95 in
(1014 mb)
N 4.6 mph
(N 7 kph)
- 10SM
14:15
Overcast
63°F / 17°C 43°F / 6°C 49% 29.95 in
(1014 mb)
N 9.2 mph
(N 15 kph)
- 10SM
13:55
Overcast
63°F / 17°C 43°F / 6°C 49% 29.95 in
(1014 mb)
NNW 8.1 mph
(NNW 13 kph)
- 10SM
13:35
Mostly Cloudy
64°F / 18°C 43°F / 6°C 46% 29.95 in
(1014 mb)
N 10.4 mph
(N 17 kph)
- 10SM
13:15
Partly Cloudy
63°F / 17°C 43°F / 6°C 49% 29.95 in
(1014 mb)
NNW 9.2 mph
(NNW 15 kph)
- 10SM
12:55
Partly Cloudy
64°F / 18°C 45°F / 7°C 49% 29.95 in
(1014 mb)
NNW 6.9 mph
(NNW 11 kph)
- 10SM
12:35
Overcast
63°F / 17°C 43°F / 6°C 49% 29.95 in
(1014 mb)
NNW 6.9 mph
(NNW 11 kph)
- 10SM
12:15
Overcast
63°F / 17°C 43°F / 6°C 49% 29.95 in
(1014 mb)
N 8.1 mph
(N 13 kph)
- 10SM
11:55
Partly Cloudy
63°F / 17°C 45°F / 7°C 52% 29.95 in
(1014 mb)
N 9.2 mph
(N 15 kph)
- 10SM
11:35
Partly Cloudy
63°F / 17°C 45°F / 7°C 52% 29.95 in
(1014 mb)
N 5.8 mph
(N 9 kph)
- 10SM
11:15
Mostly Cloudy
61°F / 16°C 46°F / 8°C 59% 29.98 in
(1015 mb)
N 6.9 mph
(N 11 kph)
- 10SM
10:55
Partly Cloudy
63°F / 17°C 46°F / 8°C 56% 29.98 in
(1015 mb)
NW 8.1 mph
(NW 13 kph)
- 10SM
10:35
Partly Cloudy
59°F / 15°C 46°F / 8°C 63% 29.98 in
(1015 mb)
NNW 4.6 mph
(NNW 7 kph)
- 10SM
10:15
Mostly Cloudy
57°F / 14°C 45°F / 7°C 63% 29.98 in
(1015 mb)
NNW 8.1 mph
(NNW 13 kph)
- 10SM
09:55
Partly Cloudy
57°F / 14°C 46°F / 8°C 67% 29.98 in
(1015 mb)
N 9.2 mph
(N 15 kph)
- 10SM
09:35
Mostly Cloudy
57°F / 14°C 46°F / 8°C 67% 29.98 in
(1015 mb)
NNW 10.4 mph
(NNW 17 kph)
- 10SM
09:15
Overcast
55°F / 13°C 46°F / 8°C 72% 29.98 in
(1015 mb)
NW 9.2 mph
(NW 15 kph)
- 10SM
08:55
Overcast
54°F / 12°C 46°F / 8°C 77% 29.95 in
(1014 mb)
WNW 3.5 mph
(WNW 6 kph)
- 10SM
08:35
Overcast
54°F / 12°C 46°F / 8°C 77% 29.98 in
(1015 mb)
NW 4.6 mph
(NW 7 kph)
- 10SM
08:15
Overcast
54°F / 12°C 48°F / 9°C 82% 29.95 in
(1014 mb)
NW 6.9 mph
(NW 11 kph)
- 10SM
07:55
Overcast
Light Rain
52°F / 11°C 48°F / 9°C 88% 29.95 in
(1014 mb)
NW 3.5 mph
(NW 6 kph)
- 10SM
07:35
Overcast
52°F / 11°C 48°F / 9°C 88% 29.95 in
(1014 mb)
NW 4.6 mph
(NW 7 kph)
- 10SM
07:15
Overcast
52°F / 11°C 48°F / 9°C 88% 29.95 in
(1014 mb)
NW 4.6 mph
(NW 7 kph)
- 10SM
06:55
Overcast
50°F / 10°C 48°F / 9°C 94% 29.95 in
(1014 mb)
Calm - 10SM
06:35
Overcast
50°F / 10°C 48°F / 9°C 94% 29.95 in
(1014 mb)
Calm - 10SM
06:15
Overcast
Light Rain
50°F / 10°C 48°F / 9°C 94% 29.95 in
(1014 mb)
NW 3.5 mph
(NW 6 kph)
- 10SM
05:55
Overcast
Rain
50°F / 10°C 48°F / 9°C 94% 29.92 in
(1013 mb)
Calm - 10SM
05:35
Overcast
50°F / 10°C 48°F / 9°C 94% 29.92 in
(1013 mb)
Calm 0.01 in
(0.25 mm)
10SM
05:15
Overcast
50°F / 10°C 48°F / 9°C 94% 29.92 in
(1013 mb)
Calm 0.01 in
(0.25 mm)
10SM
04:55
Overcast
Rain
50°F / 10°C 48°F / 9°C 94% 29.92 in
(1013 mb)
Calm 0.01 in
(0.25 mm)
10SM
04:35
Overcast
Light Rain
50°F / 10°C 48°F / 9°C 94% 29.92 in
(1013 mb)
SSW 3.5 mph
(SSW 6 kph)
0.05 in
(1.27 mm)
10SM
04:15
Overcast
Rain
50°F / 10°C 48°F / 9°C 94% 29.92 in
(1013 mb)
SW 3.5 mph
(SW 6 kph)
0.03 in
(0.76 mm)
10SM
03:55
Overcast
Rain
50°F / 10°C 48°F / 9°C 94% 29.92 in
(1013 mb)
Calm 0.01 in
(0.25 mm)
10SM
03:35
Overcast
Rain
50°F / 10°C 48°F / 9°C 94% 29.92 in
(1013 mb)
Calm 0.06 in
(1.52 mm)
10SM
03:15
Overcast
Light Rain
50°F / 10°C 48°F / 9°C 94% 29.92 in
(1013 mb)
Calm 0.05 in
(1.27 mm)
10SM
02:55
Overcast
Rain
52°F / 11°C 50°F / 10°C 94% 29.89 in
(1012 mb)
Calm 0.03 in
(0.76 mm)
7SM
02:35
Overcast
Light Rain
52°F / 11°C 50°F / 10°C 94% 29.89 in
(1012 mb)
Calm - 10SM
02:15
Overcast
52°F / 11°C 50°F / 10°C 94% 29.89 in
(1012 mb)
Calm - 10SM
01:55
Overcast
Light Rain
52°F / 11°C 50°F / 10°C 94% 29.92 in
(1013 mb)
Calm - 10SM
01:35
Overcast
Light Rain
52°F / 11°C 50°F / 10°C 94% 29.89 in
(1012 mb)
Calm - 10SM
01:15
Overcast
Light Rain
52°F / 11°C 46°F / 8°C 82% 29.89 in
(1012 mb)
Calm - 10SM
00:55
Overcast
Drizzle
54°F / 12°C 46°F / 8°C 77% 29.92 in
(1013 mb)
Calm - 10SM
00:35
Overcast
54°F / 12°C 46°F / 8°C 77% 29.89 in
(1012 mb)
NW 5.8 mph
(NW 9 kph)
- 10SM
00:15
Overcast
54°F / 12°C 46°F / 8°C 77% 29.92 in
(1013 mb)
Calm - 10SM
Time Weather Temperature Dewpoint Humidity Pressure Winds Precip Visibility


Weather for websites

WeatherForYou.com, LLC is not responsible for any damages or problems caused by this service. Current weather conditions are obtained from the closest station including government and personal stations which may have varying degrees of accuracy. Weather forecasts are derived from the NOAA NDFD. Like all things, this site belongs to Jesus Christ... He just trusts me to maintain it. If you have any questions or comments email webmaster@weatherforyou.com

Copyright © 2014, WeatherForYou.com LLC. All rights reserved.